www.pogodaiklimat.ru

Погода и климат >> Архив погоды >> Россия >> Приморский край >> Полтавка


ПОГОДА в Полтавке

  • Прогноз погоды в Полтавке
  • Монитор погоды в Полтавке

АРХИВ ПОГОДЫ в Полтавке

Время (UTC), дата Ветер
(напр.,м/с)
 
Видим.   Явления Облачность Т
(С)
Тd
(С)
f
(%)
Тe
(С)
Тes
(С)
Комфортность P
(гПа)
Po
(гПа)
Тmin
(С)
Tmax
(С)
R
(мм)
R24
(мм)
S
(см)
12 16.07 В 2 н/о н/о +17.6 +15.2 86 +18 1012.8 1000.0
15 16.07 ЮВ 2 50 км 10 баллов +16.0 +14.7 92 +16 +16 1012.9 1000.0
18 16.07 штиль 0 н/о н/о +14.7 +14.1 96 +14 1012.9 1000.0
21 16.07 штиль 0 50 км 10/0
[Ac lent Ci fib]
+15.6 +14.8 95 +15 +16 1011.2 998.1 +14.1
00 17.07 штиль 0 н/о н/о +22.2 +16.6 71 +27 +27 душно 1010.5 997.7
03 17.07 В 3 50 км 10 баллов +24.8 +19.2 71 +30 +30 душно 1009.7 997.3
06 17.07 СВ 2 н/о н/о +22.2 +18.4 79 +27 +27 душно 1008.5 996.0
09 17.07 СВ 2 50 км 10/4 1000 м
[Sc Ac trans Ci sp]
+21.0 +18.1 84 +26 +27 душно 1008.0 995.2 +25.6
12 17.07 штиль 0 н/о н/о +19.3 +18.0 92 +21 +21 комфорт 1010.0 997.3
15 17.07 штиль 0 50 км 10 баллов +18.5 +17.7 95 +19 +19 1010.0 997.3
18 17.07 штиль 0 н/о н/о +17.9 +17.4 97 +18 +18 1010.0 997.3
21 17.07 штиль 0 20 км 10/4 1000 м
[Sc Ac trans Ci fib]
+17.5 +17.1 98 +17 +18 1008.5 995.5 +17.2
00 18.07 ЮВ 1 н/о н/о +23.6 +19.1 76 +28 +28 душно 1007.8 995.2
03 18.07 Ю 2 50 км 10 баллов +28.9 +20.1 59 +35 +35 очень
душно
1006.9 994.7
09 18.07 В 3 50 км {ливн. осадки} 8/3 600 м
[Cu med, cong Ac lent Ci fib]
+25.3 +21.6 80 +32 +33 очень
душно
1005.6 993.3 +28.9 19
12 18.07 штиль 0 н/о н/о +21.0 +19.8 93 +26 1007.2 994.7
15 18.07 штиль 0 50 км 6 баллов +18.5 +18.2 98 +19 +19 1007.4 994.7
18 18.07 штиль 0 н/о н/о +19.0 +18.5 97 +21 1007.3 994.7
21 18.07 штиль 0 500 м туман ?/? +19.6 +19.1 97 +22 +22 комфорт 1007.4 994.5 +17.3
00 19.07 штиль 0 н/о н/о +23.0 +22.5 97 +32 +32 очень
душно
1007.3 994.6
03 19.07 штиль 0 50 км 6 баллов +29.4 +18.5 52 +34 +44 очень
душно
1008.2 996.0
06 19.07 ЮВ 3 н/о н/о +30.0 +21.4 60 +38 1006.9 994.7
09 19.07 В 3 50 км 3/3 600 м
[Cu med, cong Ac lent]
+28.9 +22.4 68 +38 +39 очень
душно
1006.9 994.7 +31.9
12 19.07 В 1 н/о н/о +23.7 +21.8 89 +30 1008.4 996.0
15 19.07 штиль 0 50 км 10 баллов +20.6 +19.9 96 +25 +25 комфорт 1009.9 997.3
18 19.07 штиль 0 н/о н/о +19.9 +19.4 97 +23 1009.9 997.3
21 19.07 штиль 0 500 м туман ?/? +19.2 +18.8 98 +21 +21 комфорт 1010.5 997.6 +19.1
00 20.07 ЮВ 2 н/о н/о +20.7 +19.7 94 +26 +26 душно 1011.0 998.1
03 20.07 В 3 50 км 2 балла +27.2 +21.0 69 +34 +47 очень
душно
1011.0 998.7
06 20.07 ЮВ 5 н/о н/о +29.2 +19.8 57 +35 1009.5 997.3
09 20.07 Ю 6
{11}
50 км 4/4 600 м
[Cu Sc]
+27.2 +19.8 64 +33 +34 очень
душно
1009.6 997.3 +29.4
12 20.07 ЮВ 4 н/о н/о +21.5 +19.4 88 +26 1011.3 998.7
15 20.07 В 2 50 км 9 баллов +21.1 +19.9 93 +26 +26 душно 1011.3 998.7
18 20.07 ЮВ 3 н/о н/о +21.2 +20.0 93 +26 1011.3 998.7
21 20.07 В 1 50 км 9/3 600 м
[Sc Ac trans]
+22.2 +20.7 91 +29 +29 очень
душно
1010.0 997.3 +21.0
00 21.07 ЮВ 3 н/о н/о +25.4 +21.3 78 +32 +32 очень
душно
1009.5 996.9
03 21.07 ЮВ 3 50 км 9 баллов +24.5 +21.6 84 +31 +33 очень
душно
1009.7 997.3
06 21.07 ЮВ 6 н/о н/о +24.8 +20.9 79 +31 1008.4 996.0
09 21.07 В 2
{12}
20 км в посл. час ливневой дождь 10/8 600 м
[Cb cap Ac As]
+22.8 +21.4 92 +30 +30 очень
душно
1007.2 994.7 +25.8
12 21.07 СВ 2 н/о н/о +22.0 +21.5 97 +29 1005.8 993.3
15 21.07 СВ 2 10 км слаб. ливневой дождь 10 баллов +21.3 +20.8 97 +27 +27 душно 1003.2 990.7
18 21.07 СВ 3 н/о н/о +20.8 +20.0 95 +26 1000.5 988.0
21 21.07 СВ 3 10 км слаб. дождь 10/10 600 м
[Frnb Ns]
+20.2 +19.6 96 +24 +24 комфорт 998.1 985.4 +20.0 27
00 22.07 СВ 1 н/о н/о +20.5 +20.0 97 +26 +26 душно 998.3 985.6
03 22.07 штиль 0 20 км 10 баллов +22.4 +21.4 94 +29 +29 очень
душно
999.1 986.7
06 22.07 штиль 0 н/о н/о +25.4 +21.1 77 +32 998.9 986.7
09 22.07 штиль 0 10 км слаб. ливневой дождь 10/8 600 м
[Cb cap Ac As]
+23.7 +22.4 92 +31 +31 очень
душно
999.1 986.5 +26.3 5
12 22.07 ЮВ 1 н/о н/о +22.6 +22.1 97 +30 1001.7 989.3
15 22.07 штиль 0 50 км 9 баллов +21.7 +21.2 97 +28 +28 душно 1003.2 990.7
18 22.07 З 2 н/о н/о +21.6 +21.1 97 +28 1001.7 989.3
21 22.07 ЮЗ 1 500 м туман ?/? +19.9 +19.4 97 +24 +24 комфорт 1002.3 989.5 +19.8 2
00 23.07 З 2 н/о н/о +24.8 +21.7 83 +32 +32 очень
душно
1001.9 989.3
03 23.07 ЮЗ 2 50 км 4 балла +30.6 +20.2 54 +37 +48 очень
душно
1001.4 989.3
06 23.07 ЮЗ 2 н/о н/о +33.2 +19.6 45 +39 1000.0 988.0

 

Местоположение метеостанции Полтавка (Приморский край, Россия): широта 44.03 долгота 131.30 высота над уровнем моря 109 м.

В архиве по умолчанию представлена погода в Полтавке за последнюю неделю. Архивные данные за месяц целиком и за предыдущие месяцы, начиная с января 2011 года, Вы можете получить, выбрав интересующий диапазон дат из раскрывающегося списка и нажав кнопку "Ввод!".


*Определитесь, кто Вы:
робот инопланетянин человек

Внимание! Время в таблицах - всемирное. Для получения местного времени необходимо прибавить поправку, которая равна 10 ч.

Смотрите также архив погоды в соседних городах и на ближайших метеорологических станциях:

Погода в Суйфэньхэ (Хэйлунцзян, Китай) (41 км)
Погода в Пограничном (Приморский край, Россия) (41 км)
Погода в Тимирязевском (Приморский край, Россия) (51 км)
Погода в Хороле (Приморский край, Россия) (71 км)
Погода в Барабаше (Приморский край, Россия) (93 км)
Погода в Астраханке (Приморский край, Россия) (95 км)
Погода в Владивостоке (Приморский край, Россия) (112 км)
Погода в Многоудобном (Приморский край, Россия) (113 км)
Погода на Мысе Назимова (Приморский край, Россия) (119 км)
Погода в Анучино (Приморский край, Россия) (136 км)

Пояснения к столбцам:

Ветер - указаны скорость ветра в м/с - средняя за 10 мин, порывы в срок и между сроками (в фигурных скобках) и направление, откуда дует ветер: С - северный, СВ - северо-восточный, В - восточный, ЮВ - юго-восточный, Ю - южный, ЮЗ - юго-западный, З - западный, СЗ - северо-западный.
Видимость - горизонтальная дальность видимости в метрах или километрах. При видимости от 1 до 10 км при отсутствии осадков обычно наблюдается дымка, при ухудшении видимости до 1 км и менее - туман. В сухую погоду видимость может ухудшаться дымом, пылью или мглою.
Явления - указаны атмосферные явления, наблюдавшиеся в срок или в последний час перед сроком; фигурными скобками обозначены явления, наблюдавшиеся между сроками (за 1-3 часа до срока); квадратными скобками обозначены град или гололедные отложения с указанием их диаметра в мм.
Облачность - указаны через наклонную черту общая и нижняя облачность в баллах и высота нижней границы облаков в метрах; квадратными скобками обозначены формы облаков: Ci - перистые, Cs - перисто-слоистые, Cc - перисто-кучевые, Ac - высококучевые, As - высокослоистые, Sc - слоисто-кучевые, Ns - слоисто-дождевые, Cu - кучевые, Cb - кучево-дождевые. Подробнее классификацию облаков см. в Атласе облаков (PDF).
T - Температура воздуха - температура, измеренная на высоте 2 м над землей.
Td - Температура точки росы - температура, при понижении до которой содержащийся в воздухе водяной пар достигнет насыщения.
f - Относительная влажность воздуха - влажноcть воздуха, измеренная на высоте 2 м над землей.
Te - Эффективная температура - температура, которую ощущает одетый по сезону человек в тени. Характеристика душности погоды. При расчете учитывается влияние влажности воздуха и скорости ветра на теплоощущения человека.
Tes - Эффективная температура на солнце - температура, которую ощущает человек, с поправкой на солнечный нагрев. Характеристика знойности погоды. Зависит от высоты солнца над горизонтом, облачности и скорости ветра. Ночью, в пасмурную погоду, а также при ветре 12 м/с и более поправка равна нулю.
P - Атмосферное давление - приведенное к уровню моря атмосферное давление.
Po - Атмосферное давление - измеренное на уровне метеостанции атмосферное давление.
Tmin - Минимальная температура - минимум температуры воздуха на высоте 2 м над землей.
Tmax - Максимальная температура - максимум температуры воздуха на высоте 2 м над землей.
R - Количество осадков - Количество выпавших осадков за период времени, мм. При наведении курсора мыши на число - период времени, за который выпало указанное количество осадков.
R24 - Количество осадков - Количество выпавших осадков за 24 часа, мм.
S - Снежный покров - Высота снежного покрова, см. При наведении курсора мыши на число - состояние снежного покрова и степень покрытия местности в баллах.